COSMOS 714

Satellite information

Favourite Embed

Satellite Type and Status

PAYLOADIN ORBIT

Key statistics

Satellite COSMOS 714 at a glance.

Uptime

18393

Days in orbit

Revolutions

≈ 12.5

Per day

Orbit

LEO

Low Earth Orbit

Inclination

74.0

Latest

Satellite identification and parameters

Extended collection of information and parameters for COSMOS 714.

Object identification

Identified? True

Debris? False

Object name: COSMOS 714

International designator: 1975-016D

Object number (NORAD): 7681

Object ID (CCSDS): 7681

Country: COMMONWEALTH OF INDEPENDENT STATES (CIS)

Current information (Y/N): Y

RCS size: MEDIUM

Orbital parameters

Period: 115.265 minutes

Inclination: 74.0036 deg

SMA: 7845.575 km

Apoapsis: 1490.86 km

Periapsis: 1444.019 km

RAAN: 53.9379 deg

Eccentricy: 0.0029852

Argument of periapsis: 302.8047 deg

Mean anomaly: 68.2418 deg

Mean motion: 12.49296764 rev/day

Mean motion (dot): -0.00000006 rev/day2

B* drag term: 0.000065001 1/REarth

Two-line elements (TLE)

Creation date: July 8, 2025, 2:27 a.m.

Reference frame: TEME

Reference center: EARTH

Epoch: July 7, 2025, 10:13 p.m. UTC

TLE line 0: 0 COSMOS 714

TLE line 1: 1 07681U 75016D 25188.92613468 -.00000006 00000-0 65001-4 0 9997

TLE line 2: 2 07681 74.0036 53.9379 0029852 302.8047 68.2418 12.49296764296534

Live tracking on map

Real-time ground track for satellite COSMOS 714.

In-orbit conjunctions

There are no conjunctions computed for COSMOS 714, at the moment. Check back to stay up to date, as we update our databases every day.

Go to all conjunctions

Associated space launch

Military communications satellites

COSMOS 714 was lifted into orbit during the mission ‘Kosmos-3M | Strela-1M 81-88’, on board a Kosmos-3M space rocket.

The launch took place on Feb. 28, 1975, 2:01 p.m. from 132/2.

For more information about the launch, click the button.

Launch to space Kosmos-3M | Strela-1M 81-88
Kosmos-3M | Strela-1M 81-88

Agency: N/A

Status: Launch Successful

Launch date: Feb. 28, 1975, 2:01 p.m. UTC

Rocket: Kosmos-3M

Launch pad: 132/2

Location: Plesetsk Cosmodrome, Russian Federation

...

Latest news about this satellite

There are no fresh news available about this satellite. Check back as we update our databases every day.


Newsletter sign-up

Weekly statistics, charts and insights to help you stay on top of the space industry.